This is the latest recevied weather packets stored in our database for station/object KG4YZY-1. If no packets are shown the sender has not sent any weather packets the latest 10 day(s).
| Time | Temp. | Humidity | Pressure | Rain* | Wind** | Luminosity | Snow |
|---|---|---|---|---|---|---|---|
| 1788132904 | 24.44° C | 93% | 1018.3 hPa | 3.81 mm | - | - | - |
| 1788132603 | 24.44° C | 93% | 1018.3 hPa | 4.57 mm | - | - | - |
| 1788132304 | 23.89° C | 92% | 1018.2 hPa | 6.86 mm | - | - | - |
| 1788132003 | 23.89° C | 92% | 1018.2 hPa | 9.91 mm | - | - | - |
| 1788131704 | 23.89° C | 92% | 1018.2 hPa | 10.41 mm | - | - | - |
| 1788131404 | 23.89° C | 92% | 1018.3 hPa | 10.92 mm | - | - | - |
| 1788131104 | 23.89° C | 92% | 1018.2 hPa | 10.92 mm | - | - | - |
| 1788130804 | 23.89° C | 92% | 1018.2 hPa | 10.67 mm | - | - | - |
| 1788130503 | 23.89° C | 92% | 1018.3 hPa | 10.67 mm | - | - | - |
| 1788130204 | 23.89° C | 92% | 1018.5 hPa | 10.67 mm | - | - | - |
| 1788129904 | 23.89° C | 92% | 1018.6 hPa | 9.91 mm | - | - | - |
| 1788129604 | 24.44° C | 92% | 1018.8 hPa | 8.89 mm | - | - | - |
| 1788129303 | 24.44° C | 91% | 1018.8 hPa | 7.87 mm | - | - | - |
| 1788129005 | 24.44° C | 92% | 1018.9 hPa | 6.86 mm | - | - | - |
| 1788128704 | 25° C | 92% | 1019 hPa | 4.57 mm | - | - | - |
| 1788128404 | 25° C | 92% | 1019 hPa | 1.52 mm | - | - | - |
| 1788128103 | 25° C | 91% | 1019.1 hPa | 1.02 mm | - | - | - |
| 1788127804 | 25° C | 91% | 1019 hPa | 0.76 mm | - | - | - |
| 1788127504 | 25° C | 91% | 1019 hPa | 0.51 mm | - | - | - |
| 1788127204 | 25° C | 91% | 1018.9 hPa | 1.02 mm | - | - | - |
| 1788126903 | 25° C | 91% | 1018.8 hPa | 1.52 mm | - | - | - |
| 1788126603 | 25° C | 91% | 1018.8 hPa | 2.79 mm | - | - | - |
| 1788126304 | 25° C | 91% | 1018.7 hPa | 4.32 mm | - | - | - |
| 1788126003 | 24.44° C | 91% | 1017.7 hPa | 5.59 mm | - | - | - |
| 1788125704 | 24.44° C | 90% | 1017.5 hPa | 5.59 mm | - | - | - |
* Rain latest hour (hover to see other rain measurements)
** Current wind speed in m/s (hover to see current wind gust speed)